User: anonymous   Login
Location: Noulens
(43.8099°N, 0.1664°E)
Time: 15:23:51
(UTC+00:00)
Language:

Cosmos 2297 Rocket - Orbit

View from above orbital plane
View from above orbital plane
View from above satellite
View from above satellite

Ground track
Ground track

The orbit data is extracted from the following two-line orbital elements,

1 23405U 94077B   20224.97062047 -.00000257  00000-0 -10743-3 0  9990
2 23405  70.9847 313.7330 0003249 326.4805  33.6111 14.15223161328461
Epoch (UTC): 11 August 2020 23:17:41
Eccentricity: 0.0003249
inclination: 70.9847°
perigee height: 839 km
apogee height: 844 km
right ascension of ascending node: 313.7330°
argument of perigee: 326.4805°
revolutions per day: 14.15223161
mean anomaly at epoch: 33.6111°
orbit number at epoch: 32846

The dashed part of the orbit path shows where the satellite is in the earth's shadow,  

DLR